TimeEDT,TemperatureF,Dew PointF,Humidity,Sea Level PressureIn,VisibilityMPH,Wind Direction,Wind SpeedMPH,Gust SpeedMPH,PrecipitationIn,Events,Conditions,WindDirDegrees,DateUTC
12:15 AM,39.2,37.4,93,30.41,10.0,Calm,Calm,-,N/A,,Clear,0,2013-10-14 04:15:00
12:35 AM,39.2,37.4,93,30.42,10.0,WSW,3.5,-,N/A,,Clear,250,2013-10-14 04:35:00
12:55 AM,37.4,37.4,100,30.42,10.0,West,3.5,-,N/A,,Clear,260,2013-10-14 04:55:00
1:15 AM,37.4,37.4,100,30.42,10.0,Calm,Calm,-,N/A,,Clear,0,2013-10-14 05:15:00
1:35 AM,37.4,37.4,100,30.41,10.0,Calm,Calm,-,N/A,,Clear,0,2013-10-14 05:35:00
1:55 AM,37.4,37.4,100,30.41,10.0,Calm,Calm,-,N/A,,Clear,0,2013-10-14 05:55:00
2:15 AM,37.4,37.4,100,30.40,10.0,Calm,Calm,-,N/A,,Clear,0,2013-10-14 06:15:00
2:35 AM,37.4,35.6,93,30.39,10.0,Calm,Calm,-,N/A,,Clear,0,2013-10-14 06:35:00
2:55 AM,37.4,35.6,93,30.39,10.0,Calm,Calm,-,N/A,,Clear,0,2013-10-14 06:55:00
3:15 AM,37.4,35.6,93,30.39,10.0,Calm,Calm,-,N/A,,Clear,0,2013-10-14 07:15:00
3:35 AM,35.6,35.6,100,30.38,10.0,Calm,Calm,-,N/A,,Clear,0,2013-10-14 07:35:00
3:55 AM,35.6,35.6,100,30.38,10.0,Calm,Calm,-,N/A,,Clear,0,2013-10-14 07:55:00
4:15 AM,35.6,35.6,100,30.38,10.0,Calm,Calm,-,N/A,,Clear,0,2013-10-14 08:15:00
4:35 AM,35.6,35.6,100,30.38,10.0,West,3.5,-,N/A,,Clear,260,2013-10-14 08:35:00
4:55 AM,35.6,33.8,93,30.38,10.0,Calm,Calm,-,N/A,,Clear,0,2013-10-14 08:55:00
5:15 AM,33.8,33.8,100,30.38,10.0,Calm,Calm,-,N/A,,Clear,0,2013-10-14 09:15:00
5:35 AM,35.6,33.8,93,30.38,10.0,West,3.5,-,N/A,,Clear,260,2013-10-14 09:35:00
5:55 AM,33.8,33.8,100,30.39,10.0,Calm,Calm,-,N/A,,Clear,0,2013-10-14 09:55:00
6:15 AM,35.6,33.8,93,30.39,10.0,West,4.6,-,N/A,,Clear,260,2013-10-14 10:15:00
6:35 AM,35.6,33.8,93,30.39,10.0,WSW,3.5,-,N/A,,Clear,250,2013-10-14 10:35:00
6:55 AM,35.6,35.6,100,30.39,10.0,WSW,3.5,-,N/A,,Clear,250,2013-10-14 10:55:00
7:15 AM,35.6,35.6,100,30.39,10.0,WSW,3.5,-,N/A,,Clear,250,2013-10-14 11:15:00
7:35 AM,37.4,35.6,93,30.39,10.0,WSW,3.5,-,N/A,,Clear,250,2013-10-14 11:35:00
7:55 AM,39.2,39.2,100,30.39,10.0,Calm,Calm,-,N/A,,Clear,0,2013-10-14 11:55:00
8:15 AM,42.8,41.0,93,30.39,10.0,Calm,Calm,-,N/A,,Clear,0,2013-10-14 12:15:00
8:35 AM,46.4,42.8,87,30.40,10.0,Calm,Calm,-,N/A,,Clear,0,2013-10-14 12:35:00
8:55 AM,50.0,44.6,82,30.39,10.0,West,3.5,-,N/A,,Clear,260,2013-10-14 12:55:00
9:15 AM,53.6,44.6,72,30.39,10.0,Calm,Calm,-,N/A,,Clear,0,2013-10-14 13:15:00
9:35 AM,55.4,44.6,67,30.39,10.0,Calm,Calm,-,N/A,,Clear,0,2013-10-14 13:35:00
9:55 AM,55.4,46.4,72,30.38,10.0,Calm,Calm,-,N/A,,Clear,0,2013-10-14 13:55:00
10:15 AM,55.4,46.4,72,30.38,10.0,NE,3.5,-,N/A,,Clear,50,2013-10-14 14:15:00
10:35 AM,57.2,46.4,67,30.38,10.0,Calm,Calm,-,N/A,,Scattered Clouds,0,2013-10-14 14:35:00
10:55 AM,57.2,46.4,67,30.37,10.0,Calm,Calm,-,N/A,,Partly Cloudy,0,2013-10-14 14:55:00
11:15 AM,57.2,46.4,67,30.37,10.0,NE,4.6,-,N/A,,Clear,50,2013-10-14 15:15:00
11:35 AM,57.2,46.4,67,30.37,10.0,NE,5.8,-,N/A,,Clear,50,2013-10-14 15:35:00
11:55 AM,57.2,46.4,67,30.36,10.0,NE,8.1,-,N/A,,Clear,50,2013-10-14 15:55:00
12:15 PM,57.2,46.4,67,30.35,10.0,NE,6.9,-,N/A,,Clear,50,2013-10-14 16:15:00
12:35 PM,57.2,46.4,67,30.34,10.0,ENE,5.8,-,N/A,,Clear,70,2013-10-14 16:35:00
12:55 PM,57.2,46.4,67,30.33,10.0,ESE,5.8,-,N/A,,Clear,110,2013-10-14 16:55:00
1:15 PM,59.0,46.4,63,30.32,10.0,ENE,5.8,-,N/A,,Clear,70,2013-10-14 17:15:00
1:35 PM,60.8,46.4,59,30.32,8.0,East,8.1,-,N/A,,Clear,100,2013-10-14 17:35:00
1:55 PM,57.2,46.4,67,30.31,4.0,East,5.8,-,N/A,,Haze,80,2013-10-14 17:55:00
2:15 PM,57.2,48.2,72,30.31,9.0,ESE,8.1,-,N/A,,Clear,110,2013-10-14 18:15:00
2:35 PM,57.2,48.2,72,30.31,7.0,East,8.1,-,N/A,,Clear,100,2013-10-14 18:35:00
2:55 PM,59.0,48.2,67,30.30,7.0,ESE,5.8,-,N/A,,Clear,120,2013-10-14 18:55:00
3:15 PM,59.0,48.2,67,30.30,5.0,East,8.1,-,N/A,,Haze,100,2013-10-14 19:15:00
3:35 PM,60.8,46.4,59,30.30,7.0,ESE,9.2,-,N/A,,Clear,110,2013-10-14 19:35:00
3:55 PM,59.0,46.4,63,30.29,4.0,SE,6.9,-,N/A,,Haze,130,2013-10-14 19:55:00
4:15 PM,60.8,48.2,63,30.29,5.0,ESE,9.2,-,N/A,,Haze,120,2013-10-14 20:15:00
4:35 PM,59.0,48.2,67,30.28,4.0,SE,8.1,-,N/A,,Haze,130,2013-10-14 20:35:00
4:55 PM,57.2,48.2,72,30.29,10.0,SE,6.9,-,N/A,,Clear,140,2013-10-14 20:55:00
5:15 PM,57.2,48.2,72,30.28,10.0,SE,6.9,-,N/A,,Clear,140,2013-10-14 21:15:00
5:35 PM,57.2,50.0,77,30.29,10.0,SE,5.8,-,N/A,,Clear,140,2013-10-14 21:35:00
5:55 PM,55.4,50.0,82,30.29,10.0,SE,4.6,-,N/A,,Clear,140,2013-10-14 21:55:00
6:15 PM,55.4,50.0,82,30.29,10.0,SSE,3.5,-,N/A,,Clear,150,2013-10-14 22:15:00
6:35 PM,55.4,50.0,82,30.29,8.0,Calm,Calm,-,N/A,,Clear,0,2013-10-14 22:35:00
6:55 PM,53.6,50.0,88,30.30,10.0,Calm,Calm,-,N/A,,Clear,0,2013-10-14 22:55:00
7:15 PM,53.6,50.0,88,30.30,10.0,Calm,Calm,-,N/A,,Clear,0,2013-10-14 23:15:00
7:35 PM,53.6,48.2,82,30.30,10.0,Calm,Calm,-,N/A,,Clear,0,2013-10-14 23:35:00
7:55 PM,51.8,48.2,88,30.30,10.0,Calm,Calm,-,N/A,,Clear,0,2013-10-14 23:55:00
8:15 PM,50.0,48.2,94,30.30,10.0,Calm,Calm,-,N/A,,Clear,0,2013-10-15 00:15:00
8:35 PM,48.2,46.4,93,30.30,10.0,Calm,Calm,-,N/A,,Clear,0,2013-10-15 00:35:00
8:55 PM,48.2,46.4,93,30.31,10.0,Calm,Calm,-,N/A,,Clear,0,2013-10-15 00:55:00
9:15 PM,48.2,46.4,93,30.30,10.0,Calm,Calm,-,N/A,,Clear,0,2013-10-15 01:15:00
9:35 PM,46.4,46.4,100,30.30,10.0,Calm,Calm,-,N/A,,Clear,0,2013-10-15 01:35:00
9:55 PM,46.4,46.4,100,30.30,10.0,Calm,Calm,-,N/A,,Clear,0,2013-10-15 01:55:00
10:15 PM,46.4,46.4,100,30.29,10.0,Calm,Calm,-,N/A,,Clear,0,2013-10-15 02:15:00
10:35 PM,46.4,46.4,100,30.29,10.0,Calm,Calm,-,N/A,,Clear,0,2013-10-15 02:35:00
10:55 PM,46.4,46.4,100,30.30,10.0,Calm,Calm,-,N/A,,Clear,0,2013-10-15 02:55:00
11:15 PM,46.4,46.4,100,30.30,10.0,Calm,Calm,-,N/A,,Clear,0,2013-10-15 03:15:00
11:35 PM,46.4,44.6,93,30.29,10.0,Calm,Calm,-,N/A,,Partly Cloudy,0,2013-10-15 03:35:00
11:55 PM,46.4,44.6,93,30.29,10.0,Calm,Calm,-,N/A,,Partly Cloudy,0,2013-10-15 03:55:00